{"data":{"norad_id":62654,"epoch":"2026-09-22T19:53:17.591712Z","epoch_age_seconds":117036,"freshness":"FRESH","line1":"1 62654U 25009AX  26265.82867583  .00002503  00000+0  10460-3 0  9990","line2":"2 62654  97.3999 345.1151 0001326  20.5420 339.5871 15.24543312 93677","mean_motion":15.24543312,"eccentricity":0.0001326,"inclination_deg":97.3999,"raan_deg":345.1151,"arg_perigee_deg":20.542,"mean_anomaly_deg":339.5871,"bstar":0.0001046,"rev_number":9367,"period_min":94.454515569709,"perigee_km":491.24612128452,"apogee_km":493.06812328575,"semimajor_km":6870.2941222851,"source":"CELESTRAK","updated_at":"2026-09-23T09:00:21.540820Z"}}